Location: Allison Elementary School
(34.0784°N, 117.7317°W)
Time: 15:17:21
(UTC+00:00)

CORIOLIS - Pass Details

Date: 15 November 2019
Orbit: 819 x 838 km, 98.7° (Epoch: 15 December)

Event Time Altitude Azimuth Distance (km) Brightness Sun altitude
Rises 01:34:56 0° 167° (SSE) 3,347 7.4 -10.1°
Reaches altitude 10° 01:37:16 10° 168° (SSE) 2,421 6.6 -10.5°
Maximum altitude 01:42:38 83° 256° (WSW) 840 4.3 -11.6°
Drops below altitude 10° 01:48:05 10° 345° (NNW) 2,448 6.6 -12.7°
Sets 01:50:27 0° 347° (NNW) 3,388 7.3 -13.2°
